Weather Roundup
Issued by NWS

Home | Current Version | Previous Version | Graphics & Text | Print | Product List | Glossary Off
Versions: 1 2 3 4 5 6 7 8 9 10 11 12 13 14 15 16 17 18 19 20 21 22 23 24 25 26 27 28 29 30 31 32 33 34 35 36 37 38 39 40 41 42 43 44 45 46 47 48 49 50

000
NZUS93 KARX 191559
HRRWXR

CURRENT HOURLY OBSERVATIONS ACROSS
MUCH OF THE UPPER MISSISSIPPI VALLEY
NATIONAL WEATHER SERVICE LA CROSSE WI
1100 AM CDT SAT APR 19 2014


...SOUTHEAST MINNESOTA...


CITY           SKY/WX    TMP DP  RH WIND       PRES   REMARKS
ROCHESTER      PTSUNNY   51  33  50 S24G32    30.15F
ROCHESTER/MAYO FAIR      50  28  42 SE25G35   30.15F
WINONA         PTSUNNY   54  28  37 S12G17    30.20F
AUSTIN         PTSUNNY   52  34  50 S16G25    30.13S
ALBERT LEA     PTSUNNY   54  37  54 S18G28    30.10F
DODGE CENTER   PTSUNNY   54  34  47 S24G33    30.13F
PRESTON        MOSUNNY   51  31  46 SE21G30   30.18F
OWATONNA       PTSUNNY   54  36  50 SE30      30.08F
FARIBAULT      PTSUNNY   57  34  41 S16G22    30.10R
$$

...ELSEWHERE IN MINNESOTA...


CITY           SKY/WX    TMP DP  RH WIND       PRES   REMARKS
MINNEAPOLIS    CLOUDY    50  34  54 SE18      30.09F
INTNL FALLS    CLOUDY    38  31  76 SE15G24   29.90F WCI  29
DULUTH         CLOUDY    35  31  85 E16       30.05F WCI  25
RED WING       PTSUNNY   54  30  40 S12G22    30.14S
REDWOOD FALLS  PTSUNNY   63  45  51 S16G28    29.98S
MANKATO        PTSUNNY   54  37  54 S21G29    30.05F
WORTHINGTON    MOSUNNY   64  41  42 SW26G35   30.01R
FAIRMONT       MOSUNNY   61  37  41 S29G38    30.03F
$$

...SOUTHWEST WISCONSIN...


CITY           SKY/WX    TMP DP  RH WIND       PRES   REMARKS
LA CROSSE      MOSUNNY   53  27  36 SE14      30.23F
PRAIRIE DU CHI SUNNY     51  26  37 E14       30.28F
BOSCOBEL       SUNNY     55  27  34 SE12G24   30.30F
LONE ROCK      NOT AVBL
PLATTEVILLE    SUNNY     52  27  38 SE20      30.31F
FORT MC COY    NOT AVBL
VIROQUA        FAIR      48  28  45 SE18      30.26F
WIS DELLS      MOSUNNY   47  26  43 SE10      30.32F
$$

...ELSEWHERE IN WISCONSIN...


CITY           SKY/WX    TMP DP  RH WIND       PRES   REMARKS
MILWAUKEE      PTSUNNY   42  33  70 SE13      30.41F
MADISON        PTSUNNY   52  30  43 SE13      30.34F
GREEN BAY      SUNNY     44  32  62 SE14      30.38F
EAU CLAIRE     MOSUNNY   51  26  37 S21G28    30.19F
BLACK RVR FLS  FAIR      53  23  31 SE12G20   30.24F
MEDFORD        SUNNY     40  27  57 SE17G23   30.26F WCI  32
WAUSAU         SUNNY     45  25  45 SE13G24   30.28F
WIS RAPIDS     MOSUNNY   49  24  37 SE12G20   30.30F
MARSHFIELD     MOSUNNY   46  27  47 S17       30.27F
RICE LAKE      CLOUDY    44  26  49 SE20G25   30.18F
$$

...NORTHEAST IOWA...


CITY           SKY/WX    TMP DP  RH WIND       PRES   REMARKS
WATERLOO       SUNNY     55  31  39 S16G28    30.20F
DUBUQUE        SUNNY     52  29  41 SE22      30.28F
DECORAH        MOSUNNY   50  28  43 S17G25    30.21F
MASON CITY     PTSUNNY   54  37  52 S26G36    30.13F
CHARLES CITY   MOSUNNY   52  34  50 SE23G29   30.19F
OELWEIN        SUNNY    N/A N/A N/A SE23G30   30.24S
$$

...ELSEWHERE IN IOWA...


CITY           SKY/WX    TMP DP  RH WIND       PRES   REMARKS
DES MOINES     PTSUNNY   68  42  38 S18       30.15F
IOWA CITY      SUNNY     56  30  37 SE14G22   30.29S
FORT DODGE     PTSUNNY   61  39  44 S18G28    30.11F
MARSHALLTOWN   SUNNY     57  38  48 SE22      30.17F
CEDAR RAPIDS   SUNNY     56  27  32 SE15      30.25F
$$

...NORTHERN ILLINOIS...


CITY           SKY/WX    TMP DP  RH WIND       PRES   REMARKS
CHICAGO-OHARE  MOSUNNY   51  35  54 E8        30.36F
DUPAGE         SUNNY     55  35  47 E9        30.34F
CHICAGO-MIDWAY PTSUNNY   50  37  61 E5        30.36F
MOLINE         SUNNY     60  26  27 SE13G21   30.29F
ROCKFORD       PTSUNNY   56  31  38 SE14      30.35F
STERLING       MOSUNNY   57  36  44 SE13      30.32F
PEORIA         SUNNY     62  28  27 SE8       30.31F
$$

NOTE: "FAIR" INDICATES FEW OR NO CLOUDS BELOW 12,000 FEET WITH NO
SIGNIFICANT WEATHER AND/OR OBSTRUCTIONS TO VISIBILITY. WIND
SPEEDS ARE IN MILES-PER-HOUR.



USA.gov is the U.S. government's official web portal to all federal, state and local government web resources and services.